Cherry Point, NC

11:46 AM EDT on March 30, 2017 (GMT -0400)
Cherry Point Marine Corps Air Station

Weather History for KNKT - April, 2013

Change the Weather History Date:

Friday, April 19, 2013

  Actual Average Record
Temperature  
Mean Temperature 72 °F -  
Max Temperature 79 °F 71 °F 88 °F (2016)
Min Temperature 66 °F 50 °F 30 °F (2001)
Cooling Degree Days 7    
Growing Degree Days 22 (Base 50)    
Moisture  
Dew Point 66 °F    
Average Humidity 84    
Maximum Humidity 94    
Minimum Humidity 68    
Precipitation  
Precipitation 0.15 in - - ()
Sea Level Pressure  
Sea Level Pressure 29.98 in    
Wind  
Wind Speed 10 mph ()    
Max Wind Speed 23 mph    
Max Gust Speed 37 mph    
Visibility 8.5 miles    
Events Rain , Thunderstorm    
Averages and records for this station are not official NWS values.
T = Trace of Precipitation, MM = Missing Value Source: Averaged Metar Reports

Daily Weather History Graph

Daily Weather History Graph

Search for Another Location

Airport or City:

Trip Planner

Search our weather history database for the weather conditions in past years. The results will help you decide how hot, cold, wet, or windy it might be!

Date:

Astronomy

Apr. 19, 2013 Rise Set
Actual Time 6:30 AM EDT 7:43 PM EDT
Civil Twilight 6:04 AM EDT 8:09 PM EDT
Nautical Twilight 5:32 AM EDT 8:40 PM EDT
Astronomical Twilight 5:00 AM EDT 9:13 PM EDT
Moon 1:40 PM EDT (4/19) 2:29 AM EDT (4/19)
Length of Visible Light 14h 05m
Length of Day
13h 12m
First Quarter, 61% of the Moon is Illuminated
Apr 19
First Quarter
Apr 25
Full
May 2
Last Quarter
May 9
New
May 18
First Quarter

Hourly Weather History & Observations

Time (EDT) Temp. Dew Point Humidity Pressure Visibility Wind Dir Wind Speed Gust Speed Precip Events Conditions
12:54 AM 69.1 °F 63.0 °F 81% 30.09 in 10.0 mi South 5.8 mph - N/A   Mostly Cloudy
1:54 AM 69.1 °F 63.0 °F 81% 30.06 in 10.0 mi SSE 4.6 mph - N/A   Partly Cloudy
2:54 AM 69.1 °F 64.0 °F 84% 30.04 in 10.0 mi SSE 5.8 mph - 0.00 in Rain Light Rain
3:25 AM 69.8 °F 64.4 °F 83% 30.03 in 10.0 mi South 10.4 mph - N/A   Overcast
3:54 AM 70.0 °F 64.0 °F 81% 30.01 in 10.0 mi SSE 8.1 mph - N/A   Overcast
4:54 AM 70.0 °F 64.9 °F 84% 30.00 in 9.0 mi South 6.9 mph - N/A   Overcast
5:03 AM 69.8 °F 66.2 °F 88% 30.01 in 5.0 mi SSE 11.5 mph - 0.00 in Rain Light Rain
5:15 AM 69.8 °F 66.2 °F 88% 30.00 in 5.0 mi SSE 10.4 mph - 0.01 in Rain Light Rain
5:23 AM 69.8 °F 66.2 °F 88% 30.01 in 3.0 mi South 18.4 mph 32.2 mph 0.03 in Rain Rain
5:38 AM 68.0 °F 64.4 °F 88% 30.01 in 9.0 mi South 11.5 mph 25.3 mph 0.03 in Rain Light Rain
5:49 AM 68.0 °F 64.4 °F 88% 30.01 in 10.0 mi South 13.8 mph 20.7 mph 0.03 in   Overcast
5:54 AM 66.9 °F 64.0 °F 90% 30.01 in 10.0 mi South 13.8 mph 20.7 mph 0.03 in   Overcast
6:01 AM 66.2 °F 64.4 °F 94% 30.01 in 10.0 mi South 11.5 mph 19.6 mph N/A   Overcast
6:09 AM 66.2 °F 64.4 °F 94% 30.02 in 10.0 mi South 8.1 mph 16.1 mph N/A   Overcast
6:17 AM 66.2 °F 64.4 °F 94% 30.02 in 10.0 mi South 8.1 mph - N/A   Overcast
6:24 AM 66.2 °F 64.4 °F 94% 30.02 in 10.0 mi SSW 8.1 mph - N/A   Overcast
6:54 AM 68.0 °F 64.9 °F 90% 30.01 in 1.0 mi SSW 6.9 mph - 0.02 in Rain Rain
7:07 AM 66.2 °F 64.4 °F 94% 30.02 in 1.0 mi SSW 6.9 mph - 0.03 in Rain Light Rain
7:17 AM 66.2 °F 64.4 °F 94% 30.03 in 10.0 mi South 8.1 mph - 0.03 in   Overcast
7:25 AM 66.2 °F 64.4 °F 94% 30.03 in 10.0 mi South 8.1 mph - 0.03 in   Overcast
7:54 AM 68.0 °F 64.0 °F 87% 30.02 in 10.0 mi South 9.2 mph 18.4 mph 0.03 in   Overcast
8:54 AM 69.1 °F 66.0 °F 90% 30.02 in 7.0 mi SSW 5.8 mph - 0.01 in Rain Rain
9:03 AM 69.8 °F 66.2 °F 88% 30.02 in 6.0 mi WSW 5.8 mph - 0.02 in   Mist
9:33 AM 73.4 °F 69.8 °F 88% 30.03 in 9.0 mi South 15.0 mph 23.0 mph 0.03 in   Overcast
9:54 AM 75.0 °F 69.1 °F 82% 30.02 in 10.0 mi SSW 12.7 mph 25.3 mph 0.03 in   Mostly Cloudy
10:06 AM 75.2 °F 69.8 °F 83% 30.03 in 10.0 mi SSW 15.0 mph 25.3 mph N/A   Mostly Cloudy
10:30 AM 75.2 °F 69.8 °F 83% 30.03 in 10.0 mi SSW 16.1 mph 27.6 mph N/A   Mostly Cloudy
10:54 AM 75.9 °F 69.1 °F 79% 30.01 in 10.0 mi South 17.3 mph 26.5 mph N/A   Overcast
11:54 AM 77.0 °F 69.1 °F 76% 30.00 in 10.0 mi SSW 18.4 mph 31.1 mph N/A   Overcast
12:54 PM 77.0 °F 69.1 °F 76% 29.99 in 10.0 mi SSW 18.4 mph 33.4 mph N/A   Overcast
1:54 PM 75.0 °F 69.1 °F 82% 29.97 in 4.0 mi SSW 19.6 mph 34.5 mph 0.02 in Rain Heavy Rain
1:59 PM 73.4 °F 69.8 °F 88% 29.97 in 2.5 mi SSW 17.3 mph 34.5 mph 0.01 in Rain Rain
2:02 PM 73.4 °F 69.8 °F 88% 29.97 in 7.0 mi SSW 13.8 mph 34.5 mph 0.01 in Rain Light Rain
2:54 PM 78.1 °F 70.0 °F 76% 29.94 in 7.0 mi SSW 23.0 mph 36.8 mph 0.01 in   Mostly Cloudy
3:54 PM 77.0 °F 69.1 °F 76% 29.92 in 10.0 mi SSW 21.9 mph 35.7 mph N/A   Overcast
4:21 PM 75.2 °F 66.2 °F 73% 29.92 in 10.0 mi SSW 13.8 mph 28.8 mph N/A   Overcast
4:54 PM 73.9 °F 64.9 °F 73% 29.91 in 10.0 mi South 12.7 mph 21.9 mph N/A   Overcast
5:54 PM 73.9 °F 64.0 °F 71% 29.91 in 10.0 mi SSW 12.7 mph 23.0 mph N/A   Overcast
6:54 PM 73.9 °F 63.0 °F 68% 29.90 in 10.0 mi SSW 17.3 mph 26.5 mph N/A   Overcast
7:54 PM 72.0 °F 64.0 °F 76% 29.91 in 10.0 mi SSW 10.4 mph 26.5 mph 0.00 in   Mostly Cloudy
8:54 PM 73.9 °F 66.9 °F 79% 29.90 in 10.0 mi South 17.3 mph 27.6 mph N/A   Mostly Cloudy
9:09 PM 73.4 °F 68.0 °F 83% 29.92 in 10.0 mi South 13.8 mph 28.8 mph N/A   Mostly Cloudy
9:52 PM 73.4 °F 68.0 °F 83% 29.92 in 9.0 mi SSW 15.0 mph 26.5 mph N/A   Overcast
9:54 PM 73.0 °F 68.0 °F 84% 29.91 in 9.0 mi South 17.3 mph 27.6 mph N/A   Overcast
10:54 PM 73.0 °F 68.0 °F 84% 29.91 in 9.0 mi SSW 13.8 mph 27.6 mph N/A   Overcast
11:13 PM 73.4 °F 68.0 °F 83% 29.91 in 9.0 mi South 15.0 mph 28.8 mph N/A   Overcast
11:54 PM 73.9 °F 68.0 °F 82% 29.89 in 9.0 mi SSW 19.6 mph 31.1 mph N/A Thunderstorm Thunderstorm